KB9ZGZ Weather Reports


time (UTC)temp
C
wind
direction
speed
KPH
gust
KPH
rain 1hr
cm
rain 24hr
cm
rain mn
cm
humidity
%
barometer
mb
20260504081516 15 85 3.2 0.0 0.00 0.00 0.00 77 1002.1
20260504044519 16 238 1.6 0.0 0.00 0.00 0.00 69 1003.8
20260504043015 17 238 1.6 0.0 0.00 0.00 0.00 69 1004.1
20260504041507 17 238 0.0 0.0 0.00 0.00 0.00 69 1004.0
20260504040008 17 238 1.6 0.0 0.00 0.00 0.00 69 1004.4
20260504034506 16 238 1.6 0.0 0.00 0.00 0.00 71 1004.3
20260504033006 16 238 0.0 0.0 0.00 0.00 0.00 72 1004.7
20260504031503 17 238 1.6 0.0 0.00 0.00 0.00 71 1004.7
20260504030005 17 238 0.0 0.0 0.00 0.00 0.00 72 1004.6
20260504024505 17 238 1.6 0.0 0.00 0.00 0.00 71 1004.3
20260504023001 17 238 1.6 0.0 0.00 0.00 0.00 71 1004.4
20260504021559 17 238 0.0 0.0 0.00 0.00 0.00 70 1004.5
20260504020132 17 238 0.0 0.0 0.00 0.00 0.00 69 1004.1
20260504014605 17 238 0.0 0.0 0.00 0.00 0.00 66 1004.2
20260504013116 18 238 0.0 0.0 0.00 0.00 0.00 66 1003.9
20260504011552 18 238 0.0 0.0 0.00 0.00 0.00 62 1004.0
20260504010053 19 238 0.0 0.0 0.00 0.00 0.00 59 1003.8
20260504004620 19 238 0.0 0.0 0.00 0.00 0.00 59 1003.9
20260504003059 20 238 0.0 0.0 0.00 0.00 0.00 59 1003.7
20260504001519 21 238 1.6 0.0 0.00 0.00 0.00 55 1004.0
20260504000019 21 238 1.6 0.0 0.00 0.00 0.00 50 1004.0
20260503234516 22 187 1.6 0.0 0.00 0.00 0.00 48 1004.0
20260503233021 22 102 1.6 0.0 0.00 0.00 0.00 46 1004.1
20260503231519 22 102 3.2 0.0 0.00 0.00 0.00 45 1003.9
20260503230014 22 89 4.8 0.0 0.00 0.00 0.00 45 1003.9
20260503224511 22 104 3.2 0.0 0.00 0.00 0.00 44 1004.2
20260503223010 22 65 8.0 0.0 0.00 0.00 0.00 43 1004.3
20260503221510 22 111 4.8 0.0 0.00 0.00 0.00 44 1004.4
20260503220007 22 81 6.4 0.0 0.00 0.00 0.00 42 1004.5
20260503214505 22 203 6.4 0.0 0.00 0.00 0.00 41 1004.5
20260503213007 22 86 6.4 0.0 0.00 0.00 0.00 43 1004.8
20260503211558 22 336 6.4 0.0 0.00 0.00 0.00 42 1005.1
20260503210057 21 123 6.4 0.0 0.00 0.00 0.00 43 1005.0
20260503204523 21 90 8.0 0.0 0.00 0.00 0.00 43 1005.5
20260503203041 20 70 6.4 0.0 0.00 0.00 0.00 44 1005.6
20260503201517 20 120 6.4 0.0 0.00 0.00 0.00 46 1005.9
20260503200014 20 123 6.4 0.0 0.00 0.00 0.00 47 1006.2
20260503194526 19 123 6.4 0.0 0.00 0.00 0.00 46 1006.1
20260503193011 19 142 8.0 0.0 0.00 0.00 0.00 45 1006.6
20260503191507 18 112 6.4 0.0 0.00 0.00 0.00 46 1006.5
20260503190004 18 98 8.0 0.0 0.00 0.00 0.00 45 1006.7
20260503184502 18 136 6.4 0.0 0.00 0.00 0.00 48 1006.7
20260503183001 18 61 8.0 0.0 0.00 0.00 0.00 48 1007.2
20260503181602 17 100 4.8 0.0 0.00 0.00 0.00 49 1007.7
20260503180056 17 100 9.7 0.0 0.00 0.00 0.00 48 1007.9
20260503174552 17 76 9.7 0.0 0.00 0.00 0.00 47 1008.3
20260503173051 17 80 9.7 0.0 0.00 0.00 0.00 49 1009.5
20260503171549 17 100 8.0 0.0 0.00 0.00 0.00 52 1010.2